Torna al catalogo

STARLINK-37208

AttivoComunicazioniVLEO
NORAD 68523·PAYLOAD·🇺🇸 United States

Lanciato Mar 30, 2026 da Cape Canaveral Space Force Station

Loading…

Prossimi Passaggi (prossime 24 ore)

TLE

AggiornatoSource: CelesTrak SupGP

Epoca: Sep 15, 2026, 04:12 UTC

1 68523C 26068R   26258.17548611  .00040967  00000+0  12100-2 0  2581
2 68523  53.1591 324.3006 0001232  87.6079 283.7459 15.34380439    12

Traccia STARLINK-37208 in tempo reale con AllMySat

Download on the App Store